Skip Page Navigation
NASA JPL Caltech
NASA Logo - Jet Propulsion Laboratory + View the NASA Portal
+ Center for Near-Earth Object Studies
JPL Home Earth Solar System Stars & Galaxies Technology
JPL Solar System Dynamics
BODIES ORBITS EPHEMERIDES TOOLS PHYSICAL DATA DISCOVERY FAQ SITE MAP
JPL Small-Body Database Browser
Search: [ help ]  
367 Amicitia (A893 KB)
Classification: Main-belt Asteroid          SPK-ID: 2000367
Ephemeris | Orbit Diagram | Orbital Elements | Mission Design | Physical Parameters | Discovery Circumstances | Close-Approach Data ]

[ hide orbit diagram ]

For accurate long-term ephemerides, please instead use our Horizons system.This orbit viewer was implemented using two-body methods, and hence should not be used for determining accurate long-term trajectories (over several years or decades) or planetary encounter circumstances.


[ revert to old Java-based viewer ]

Orbital Elements at Epoch 2459000.5 (2020-May-31.0) TDB
Reference: JPL 79 (heliocentric ecliptic J2000)
 Element Value Uncertainty (1-sigma)   Units 
e .09626831295844841 3.3312e-08  
a 2.218856576711574 5.3675e-09 au
q 2.005250997374793 7.4513e-08 au
i 2.941399324098741 3.4936e-06 deg
node 83.44525645652446 7.5021e-05 deg
peri 55.79330101920388 7.757e-05 deg
M 240.8270931780814 1.9319e-05 deg
tp 2459400.138486267689
(2021-Jul-04.63848627)
6.4805e-05 TDB
period 1207.236266136851
3.31
4.3805e-06
1.199e-08
d
yr
n .2982017771483936 1.082e-09 deg/d
Q 2.432462156048356 5.8842e-09 au
  Orbit Determination Parameters
   # obs. used (total)      3050  
   data-arc span      41854 days (114.59 yr)  
   first obs. used      1906-03-28  
   last obs. used      2020-10-29  
   planetary ephem.      DE431  
   SB-pert. ephem.      SB431-N16  
   condition code      0  
   norm. resid. RMS      .42707  
   source      ORB  
   producer      Otto Matic  
   solution date      2020-Nov-13 04:30:25  

Additional Information
 Earth MOID = 1.02029 au 
 Jupiter MOID = 2.57534 au 
 T_jup = 3.643 
[ show covariance matrix ]

Ephemeris | Orbit Diagram | Orbital Elements | Mission Design | Physical Parameters | Discovery Circumstances | Close-Approach Data ]

Physical Parameter Table
Parameter Symbol Value Units Sigma Reference Notes
absolute magnitude H 10.7   n/a MPO435698  
diameter diameter 21.243 km 0.632 urn:nasa:pds:neowise_diameters_albedos::2.0[mainbelt] (http://adsabs.harvard.edu/abs/2012ApJ...759L...8M)  
rotation period rot_per 5.05538 h n/a LCDB (Rev. 2019-August); Warner et al., 2009 Published Reference List:
[Ford, L.; Stecher, G.; Jaeger, T.; Martin, P.; Smethells, W. (2001) IAPPP Communications 85, 35-43.]
[Behrend, R. (2005) Observatoire de Geneve web site, http://obswww.unige.ch/~behrend/page_cou.html]
[Behrend, R. (2008) Observatoire de Geneve web site, http://obswww.unige.ch/~behrend/page_cou.html]
[Kryszczynska A.; et al. (2008) Astron. Astrophys.; in preparation.]
[Hanus, J.; Durech, J.; Broz, M.; Warner, B.D.; et al. (2011) Astron. Astrophys. 530, A134.]
[Kryszczynska, A.; Colas, F.; Polinska, M.; Hirsch, R.; et al. (2012) Astron. Astrophys. 546, A72.]
[Dykhuis, M.J.; Molnar, L.A.; Gates, C.J.; Gonzales, J.A.; et al. (2016) Icarus 267, 174-203.]
[Behrend, R. (2018) Observatoire de Geneve web site, http://obswww.unige.ch/~behrend/page_cou.html]
geometric albedo albedo 0.393   0.081 urn:nasa:pds:neowise_diameters_albedos::2.0[mainbelt] (http://adsabs.harvard.edu/abs/2012ApJ...759L...8M)  

367 Amicitia (A893 KB)          Discovered 1893-May-19 by Charlois, A. at Nice
Reference: DISCOVERY.DBLast Updated: 2003-08-29

[ show close-approach data ]
Alternate Designations
 A893 KB = 1927 UO = 1957 TM = 1965 GA 
Ephemeris | Orbit Diagram | Orbital Elements | Mission Design | Physical Parameters | Discovery Circumstances | Close-Approach Data ]
ABOUT SSD CREDITS/AWARDS PRIVACY/COPYRIGHT GLOSSARY LINKS
FirstGov 2020-Dec-02 14:01 UT
(server date/time)  
NASA Home Page
Site Manager:   Ryan S. Park
Webmaster  Alan B. Chamberlin